ピメンテル彗星

P/2015 Q2 ( Pimentel )

English version
Home page
Updated on May 29, 2016

---------------------------------------------------------------------

・ プロフィール

発見日 2015年8月24日
発見光度 18.8等
発見者 Eduardo Pimentel (SONEAR Observatory at Oliveira)

・ 写真集

・ 軌道要素

Epoch 2015 Sept. 15.0 TT = JDT 2457280.5
T 2015 Sept. 10.33774 TT                                MPCW
q   1.8191288            (2000.0)            P               Q
n   0.04887236     Peri.  244.40746     +0.84677490     -0.33281877
a   7.4090156      Node   228.24510     +0.03729502     -0.74103568
e   0.7544709      Incl.  146.20205     -0.53064239     -0.58317904
P  20.2
From 54 observations 2015 Aug. 24-Nov. 9, mean residual 0".5.

・ 光度変化

        m1 = 15.0 + 5 logΔ + 10.0 log r

---------------------------------------------------------------------

軌道要素はM.P.E.C. 2015-W63に掲載されたものです。
光度グラフはComet for Windowsで作成したものです。

---------------------------------------------------------------------

Copyright(C) Seiichi Yoshida (comet@aerith.net). All rights reserved.